Temperature
19 20 20 20 17 14 16 15 13 12 12 12 12 12 11 10 10 11 11 10 10 10 9 8 8 8 8 8 8 8 7 7 7 6 6 6 5 5 5 5 4 4 4 4 4 5 5 5 5
19 20 20 20 15 16 16 14 13 12 12 11 12 12 11 11 11 11 11 10 9 9 9 9 8 8 8 8 8 7 7 7 6 6 6 5 5 5 4 4 4 4 3 3 3 4 4 4 4
20 20 20 15 15 16 17 14 12 11 12 12 11 12 11 11 12 12 11 10 9 9 9 9 8 8 8 8 8 7 7 6 6 6 5 5 5 4 4 4 3 3 3 3 3 3 3 3 3
20 20 19 15 17 15 14 13 11 10 11 11 12 11 11 12 12 12 11 10 9 9 9 8 8 8 8 8 8 7 7 6 6 6 6 5 5 4 4 3 3 3 2 2 2 2 3 3 3
20 20 15 15 16 14 12 12 11 10 11 11 11 11 11 12 12 11 11 10 9 9 9 8 8 8 8 8 7 7 7 6 6 6 6 5 5 4 4 3 3 2 2 2 2 3 3 3 4
20 17 15 16 16 14 12 12 12 12 11 11 11 11 12 12 12 11 10 10 9 9 9 8 8 8 8 8 7 7 7 6 6 6 6 6 5 4 4 3 3 3 3 3 3 3 3 4 4
20 14 16 16 15 14 12 12 12 11 11 12 13 12 12 12 11 10 9 9 9 8 8 8 8 8 8 8 7 7 7 6 6 6 6 5 5 4 4 4 3 3 3 3 3 3 4 4 4
19 13 14 13 13 14 13 13 13 13 13 13 13 12 13 13 12 10 9 8 8 8 8 8 8 8 8 7 7 7 7 6 6 6 5 5 4 4 4 4 4 3 3 3 3 3 3 3 3
18 14 15 14 13 14 13 12 13 13 13 13 13 13 13 13 12 11 9 9 8 8 8 8 7 7 7 7 7 7 6 6 6 5 5 5 4 4 4 4 3 3 3 3 3 3 3 2 2
17 15 15 14 13 13 12 13 13 12 11 12 13 13 13 13 13 12 12 11 11 10 9 8 8 7 7 7 7 7 6 6 6 5 5 5 4 4 4 3 3 3 3 3 2 2 2 2 1
16 15 15 14 14 14 12 12 13 12 10 13 14 15 14 13 12 12 13 12 12 11 9 9 8 8 7 7 7 6 6 6 6 5 5 4 4 4 3 3 3 3 2 2 2 1 1 1 0
14 13 13 13 13 13 13 13 11 12 15 15 15 15 14 14 14 14 13 13 12 11 10 9 8 8 7 7 7 6 6 6 6 5 5 4 4 4 3 3 3 2 2 2 1 1 0 -0 -1
13 12 13 13 13 13 12 12 12 13 16 15 14 14 14 14 14 14 13 12 12 11 10 9 8 8 7 7 7 6 6 6 5 5 5 4 4 3 3 2 2 2 1 1 1 -0 -1 -2 -2
12 12 12 13 13 13 12 12 11 14 15 15 14 14 14 14 15 14 13 13 12 12 11 9 8 8 7 7 7 6 6 5 5 5 5 4 4 3 2 2 2 1 1 0 -0 -1 -2 -3 -4
13 13 13 13 13 12 12 11 10 16 15 15 15 15 14 14 14 14 14 14 13 12 11 10 9 8 7 7 6 6 6 5 5 5 4 4 3 3 2 2 1 1 -0 -1 -1 -2 -3 -4 -5
13 13 14 13 12 11 12 12 13 16 14 14 15 15 15 15 14 14 14 13 13 12 11 10 9 8 8 7 7 6 5 5 5 4 4 4 3 2 2 1 1 0 -1 -1 -2 -3 -3 -4 -5
13 13 14 13 11 10 10 11 11 14 14 13 15 15 15 15 15 15 14 14 13 12 11 10 9 9 8 7 7 6 5 5 5 4 4 4 3 2 2 1 0 -0 -1 -2 -3 -3 -4 -5 -6
15 14 13 13 12 9 8 9 11 13 12 13 14 15 15 16 16 16 15 14 13 12 11 11 10 9 8 7 6 5 5 5 5 4 4 3 3 2 1 1 0 -1 -1 -2 -3 -4 -4 -5 -6
15 14 13 12 12 9 9 10 12 13 11 10 11 14 15 17 18 16 15 14 13 13 12 11 10 10 8 8 7 6 6 6 5 4 4 3 3 2 1 1 0 -1 -1 -2 -3 -4 -4 -4 -6
14 13 12 12 11 10 9 10 12 11 11 12 12 14 17 18 18 17 16 15 14 14 13 13 12 11 10 9 8 7 6 5 5 4 3 3 3 2 1 1 0 -1 -2 -2 -3 -4 -5 -5 -6
14 13 13 13 13 11 10 11 11 11 11 11 13 15 17 18 19 19 18 17 16 15 15 15 14 13 12 10 8 6 5 5 5 4 4 4 3 2 1 1 0 -1 -2 -2 -3 -4 -5 -6 -6
12 13 13 13 12 10 11 11 13 12 11 11 13 15 19 20 20 20 19 18 17 17 17 16 15 14 13 11 9 8 7 7 7 6 4 3 2 2 1 1 -0 -1 -2 -2 -3 -4 -5 -6 -6
13 13 13 12 11 10 9 10 12 11 12 13 14 18 20 21 21 21 20 19 19 18 17 16 15 14 13 12 11 9 8 7 6 5 4 3 3 2 1 0 -0 -1 -2 -2 -3 -4 -5 -6 -7
13 12 10 8 8 10 10 9 11 11 13 14 14 18 20 21 21 21 21 20 19 18 18 17 16 15 14 13 12 10 9 8 6 5 4 3 3 2 1 0 -0 -1 -2 -2 -3 -4 -5 -6 -7
13 12 11 12 11 11 10 9 11 13 12 12 13 17 18 19 20 21 21 20 20 19 18 18 17 16 15 14 13 12 10 8 7 6 4 3 3 2 1 0 -0 -1 -2 -3 -3 -4 -5 -6 -7
12 12 12 13 11 10 10 9 12 13 13 14 15 16 19 20 20 21 21 20 20 19 19 18 17 17 16 15 14 13 11 9 7 6 5 4 3 2 1 0 -0 -1 -2 -3 -3 -4 -5 -5 -6
11 10 11 10 10 9 9 10 11 13 14 14 15 17 19 20 20 20 20 20 20 19 19 18 17 17 16 15 14 13 12 10 8 7 5 4 3 2 1 0 -0 -1 -2 -3 -3 -4 -4 -5 -6
12 10 8 10 11 10 10 10 12 14 15 14 13 16 18 19 20 20 20 20 19 19 18 18 17 17 16 15 14 13 12 11 9 7 5 4 3 2 1 0 -0 -1 -2 -3 -3 -4 -4 -5 -6
10 10 10 8 8 9 9 11 12 13 13 13 13 16 18 19 19 19 19 19 19 18 18 18 17 17 16 15 14 13 12 11 9 7 5 4 3 2 1 0 -1 -1 -2 -2 -3 -4 -4 -5 -6
10 10 9 10 10 7 7 11 13 12 12 12 13 16 18 18 18 17 17 17 17 18 18 17 17 17 16 15 14 13 12 10 9 7 5 4 2 1 1 -0 -1 -1 -2 -2 -3 -4 -4 -5 -6
Wind_Speed
3 3 3 4 6 6 1 3 5 5 4 2 2 4 7 7 6 4 2 5 8 9 8 10 10 9 9 8 8 9 10 11 12 13 14 15 16 16 18 18 19 20 21 22 23 24 25 26 26
1 2 5 5 5 1 4 4 6 6 6 6 4 3 3 4 1 3 4 7 10 11 10 9 11 10 9 8 8 8 9 10 11 12 13 14 14 15 16 17 18 19 20 21 22 23 24 24 25
2 5 5 5 4 4 4 3 6 4 6 5 4 1 3 4 5 7 6 11 11 11 11 9 12 10 9 8 8 7 8 9 10 11 12 13 14 15 15 16 17 18 18 19 20 21 22 23 24
3 5 6 5 2 3 3 2 6 8 4 3 5 3 3 2 6 7 8 14 11 11 10 9 12 11 9 8 7 7 7 8 9 10 11 12 13 14 14 15 15 16 17 18 19 20 21 22 23
5 5 5 3 3 3 3 3 9 8 7 5 6 4 4 2 4 8 10 12 10 10 10 8 13 11 10 8 7 7 7 7 8 10 11 11 12 12 13 14 14 15 16 17 18 19 20 21 22
5 5 3 3 5 3 3 5 8 6 5 5 7 4 5 4 8 9 10 11 14 13 10 6 12 12 10 8 7 7 6 7 8 9 10 10 11 11 12 13 13 14 15 16 17 19 20 20 21
5 5 4 4 3 5 5 7 6 7 6 8 8 6 3 5 8 10 9 11 12 13 11 8 8 10 10 9 8 7 7 7 7 8 9 10 10 10 11 12 12 13 14 15 16 18 19 19 20
5 6 4 3 5 7 6 8 5 9 7 4 9 8 6 7 9 9 7 7 7 9 11 10 9 10 9 8 8 8 8 7 7 7 8 9 9 10 10 11 12 12 13 14 15 17 18 18 19
4 4 4 7 8 6 6 7 4 3 5 4 5 5 0 11 13 10 6 5 6 7 8 11 11 12 11 10 8 9 8 8 8 7 8 8 9 8 9 10 11 11 12 13 14 15 17 17 18
4 4 8 6 7 5 7 8 8 5 4 6 6 4 6 12 16 15 13 13 12 11 8 12 14 14 13 11 10 10 10 9 9 9 8 8 8 7 7 8 9 10 11 12 13 14 16 16 16
2 5 3 1 2 3 7 6 7 8 10 12 11 9 10 12 16 17 16 14 13 11 10 11 15 16 16 14 13 12 11 11 10 10 9 8 7 5 5 6 7 9 9 11 13 14 15 16 16
2 1 2 2 1 4 7 6 6 10 12 7 10 10 12 18 21 21 20 15 12 10 11 10 17 17 17 16 14 14 13 13 12 12 11 10 8 5 4 3 4 6 8 9 11 12 14 14 15
1 1 2 2 1 2 4 5 6 10 12 5 7 12 16 20 20 19 15 12 12 14 14 12 17 17 17 16 15 14 15 15 14 14 14 12 10 8 5 2 1 3 5 6 8 9 11 12 13
1 1 2 1 1 1 3 5 5 13 7 8 10 13 16 19 20 16 15 16 18 18 17 14 15 19 18 16 15 15 17 17 16 15 16 15 12 10 7 5 2 2 3 4 6 8 9 10 11
2 2 4 3 2 0 1 9 11 11 6 9 11 12 13 16 16 20 20 20 20 17 16 16 16 19 18 17 17 17 18 18 17 17 17 16 15 12 10 7 6 6 5 6 7 9 9 8 9
2 4 5 5 5 2 2 12 13 5 10 12 12 11 12 14 15 18 18 17 15 14 16 17 16 17 18 18 17 17 18 18 18 18 18 18 17 15 12 9 9 9 8 7 7 7 4 5 5
3 3 5 7 5 4 6 13 10 2 8 12 12 12 13 13 15 17 17 17 16 17 16 18 17 16 17 18 17 17 17 17 18 18 18 19 19 17 15 12 12 10 9 8 8 5 4 5 6
5 5 6 7 4 6 8 17 19 8 10 14 13 12 12 16 21 17 17 16 15 15 16 17 18 15 13 13 10 9 10 13 16 18 19 20 19 19 17 14 13 11 8 6 6 5 5 5 6
3 5 9 9 4 7 12 20 25 16 11 16 17 15 16 19 15 11 14 15 13 15 17 18 19 16 13 8 7 6 7 6 7 16 19 20 20 19 18 13 12 11 7 6 6 4 5 5 4
5 6 8 8 3 6 9 17 20 15 12 16 17 17 18 16 11 11 13 15 18 19 19 19 21 19 18 14 9 5 5 5 7 13 17 20 20 20 17 15 12 11 7 7 6 6 3 4 3
5 7 7 7 5 4 8 12 10 8 6 8 11 12 12 16 16 13 14 17 18 20 23 21 22 21 19 14 8 4 3 2 5 7 9 17 20 20 19 17 15 12 9 7 7 7 6 5 4
7 7 6 4 4 6 3 8 12 8 9 10 12 12 15 15 15 13 13 15 20 23 19 20 20 20 18 17 16 15 13 13 12 8 9 12 19 19 19 18 16 14 11 7 8 7 6 6 6
7 1 0 2 3 5 3 6 12 8 10 12 12 13 15 14 15 16 16 18 18 17 16 17 17 19 19 20 21 20 17 13 6 6 9 10 12 17 18 18 16 13 11 10 9 7 7 6 7
3 4 4 5 3 5 5 6 10 7 10 10 9 10 11 12 12 14 12 11 12 12 14 15 18 20 19 21 21 22 21 15 10 10 11 10 8 9 15 17 16 15 12 11 10 9 9 8 9
3 4 5 6 3 6 3 5 11 15 11 11 14 14 11 10 10 11 12 13 13 14 16 16 19 21 20 22 23 23 22 19 19 16 14 12 9 9 12 14 13 12 14 14 13 8 9 9 10
4 6 5 4 6 7 4 8 10 14 11 10 12 13 12 12 10 11 12 12 13 14 15 16 20 21 20 22 23 21 19 16 15 16 13 14 12 12 10 14 14 14 14 14 12 8 9 8 10
5 5 4 3 4 6 8 9 12 12 10 8 9 10 12 13 12 11 10 10 11 12 15 17 19 19 20 21 20 19 20 19 17 15 14 11 10 10 12 13 12 13 13 12 10 9 10 9 10
3 6 5 2 4 7 8 7 6 11 13 12 12 12 12 12 11 11 10 9 9 10 10 12 16 18 18 18 19 18 19 20 17 14 15 14 13 11 11 12 12 11 10 11 9 9 10 10 11
5 4 4 3 4 4 6 8 8 11 13 13 15 14 13 13 13 12 10 8 8 9 10 12 14 15 16 18 18 18 18 18 16 16 17 15 14 14 14 13 12 12 11 10 10 11 10 11 12
7 8 8 4 6 6 5 11 11 12 13 12 14 14 14 14 13 12 11 9 7 8 9 11 13 15 16 15 16 18 16 16 18 19 17 16 15 14 14 13 12 12 11 10 11 12 11 12 13
Wind_Direction
59 65 62 55 56 53 163 210 170 159 170 130 111 138 165 174 175 196 126 173 144 138 132 137 135 124 111 97 83 72 62 55 49 45 42 39 37 35 32 30 29 29 28 27 27 26 26 26 25
79 58 54 59 86 45 271 204 187 194 158 134 109 115 141 196 188 138 164 191 155 137 128 133 140 131 120 107 92 79 69 60 53 48 44 40 38 36 32 30 29 28 27 27 26 26 25 24 22
81 50 78 75 111 187 242 201 182 118 141 143 128 144 204 207 191 187 199 168 154 142 138 150 144 138 129 117 102 87 75 66 58 52 47 42 39 38 33 30 29 27 27 26 26 26 25 23 21
81 47 55 75 173 212 241 217 153 131 162 155 152 200 247 228 186 187 159 157 148 149 149 165 150 145 137 127 114 98 84 73 64 58 51 44 41 40 34 29 29 27 26 25 25 25 24 22 20
58 75 60 39 256 255 242 204 159 162 184 180 176 203 242 189 147 145 148 157 154 157 158 172 158 153 146 138 128 112 96 83 72 65 57 48 43 41 35 30 30 27 26 25 25 24 23 22 19
57 70 92 253 259 266 232 174 159 175 174 174 183 204 234 155 151 161 158 164 163 159 159 163 169 162 157 150 141 127 111 98 84 75 66 54 47 42 36 30 30 28 27 25 24 23 23 22 19
111 115 183 220 248 268 215 167 178 176 189 204 184 194 233 191 189 161 157 163 166 163 160 155 145 157 162 160 155 143 129 115 101 89 79 65 55 46 39 31 30 29 28 25 24 23 21 21 17
119 107 123 203 225 252 194 171 196 173 203 174 166 190 237 200 158 140 143 156 169 171 170 164 153 150 149 151 160 153 142 130 117 105 95 80 67 54 42 31 30 29 28 25 24 23 21 20 15
93 91 219 220 207 237 172 177 189 166 143 185 215 218 88 135 135 137 150 176 191 191 189 178 170 167 165 160 159 156 149 141 130 122 113 102 91 73 49 35 33 30 29 25 23 22 20 19 14
89 177 231 210 193 204 180 188 181 160 192 225 240 204 120 142 159 172 183 190 194 196 198 192 183 178 175 170 165 158 152 149 147 145 138 125 109 92 67 46 37 33 31 26 23 21 20 16 10
78 205 235 177 213 179 173 196 182 176 224 217 211 190 154 165 178 190 197 196 197 194 196 194 192 186 182 176 172 171 168 166 165 165 161 150 136 114 90 64 47 39 31 28 20 19 14 8 2
91 358 343 319 207 170 184 183 197 211 226 209 201 164 168 179 190 198 201 200 191 191 199 193 194 190 189 185 183 182 180 180 180 181 178 170 162 154 133 88 48 33 23 17 12 7 0 355 348
93 325 1 359 119 182 176 206 232 243 238 215 157 160 181 191 199 205 204 196 192 199 201 197 193 193 191 189 188 191 191 191 191 190 190 187 179 176 171 155 60 18 6 -0 353 347 340 332 324
133 357 318 340 70 160 213 256 244 257 230 199 186 191 197 200 203 201 202 201 201 204 203 198 196 197 192 192 194 195 197 197 196 197 198 197 193 187 184 188 205 276 306 310 310 307 303 297 295
130 351 312 237 200 246 329 288 236 242 166 209 216 214 210 213 208 207 207 207 205 204 201 199 199 198 196 197 199 200 200 199 199 202 203 202 201 197 194 197 215 239 256 268 277 282 281 275 276
38 12 313 269 191 154 166 270 268 236 197 230 230 225 224 223 218 218 213 211 205 200 200 201 202 198 200 200 200 199 201 201 203 205 205 206 206 204 200 203 220 236 243 250 258 263 262 261 265
20 311 279 293 196 166 203 256 273 164 205 242 243 232 229 232 230 224 216 212 205 202 200 200 202 198 200 201 199 199 201 204 206 206 206 208 208 208 204 209 223 232 233 239 249 251 232 257 269
268 264 269 269 226 185 229 256 268 236 220 245 250 244 234 236 236 223 215 211 206 203 202 203 204 202 193 192 190 194 203 210 209 206 207 208 208 208 207 212 223 227 224 231 236 246 246 243 260
232 242 265 265 220 198 243 261 270 267 233 246 248 243 240 242 242 212 207 205 202 202 203 205 204 200 189 183 188 191 207 206 206 211 209 207 208 207 205 209 217 219 216 224 225 234 259 260 247
229 263 272 283 218 213 276 276 271 264 241 237 240 238 237 240 240 214 204 201 205 206 207 206 207 201 198 199 187 178 177 194 206 208 208 208 207 206 206 208 210 214 216 225 226 217 237 260 254
240 229 251 272 319 273 308 296 287 291 252 254 241 238 236 233 238 224 207 207 207 210 209 208 207 204 201 192 172 154 141 152 182 201 207 207 205 205 205 206 209 212 210 221 224 215 219 246 251
261 243 234 276 317 297 352 301 291 288 298 269 251 237 239 236 234 228 212 210 211 215 210 209 205 204 199 189 191 191 199 207 204 195 197 198 202 203 206 208 209 212 214 217 225 221 215 224 251
229 356 193 295 248 297 253 236 285 312 287 273 258 241 238 234 227 229 220 217 217 212 205 206 203 204 199 197 201 203 212 213 185 180 187 195 200 203 205 208 209 212 216 219 222 223 221 221 235
139 60 51 54 72 289 239 198 284 268 248 276 289 272 255 246 234 235 230 218 216 203 201 199 202 207 201 201 205 208 212 203 187 190 194 198 199 203 207 209 210 213 216 220 224 226 227 231 235
95 68 344 335 337 260 198 213 254 259 253 254 276 288 291 274 250 241 231 219 216 205 203 200 202 209 204 204 208 212 213 207 205 201 201 197 199 205 208 207 209 213 218 223 225 224 231 232 236
179 158 183 261 269 289 273 240 257 270 281 270 269 279 289 281 263 249 239 226 219 210 202 200 206 211 205 206 212 213 212 211 212 207 200 201 204 206 198 203 209 213 217 223 223 227 233 234 238
162 204 179 174 282 281 275 288 298 293 317 317 303 297 291 288 283 269 261 241 227 214 207 205 208 211 208 209 211 212 211 212 212 205 202 202 202 198 197 200 206 213 218 222 221 232 236 237 242
172 159 112 153 279 285 288 280 261 295 304 315 317 312 304 303 294 283 271 255 238 224 213 204 210 214 213 209 210 213 212 213 211 203 202 203 201 196 192 199 205 211 217 221 223 235 239 241 248
148 161 165 176 203 230 280 270 238 251 273 289 296 298 296 296 294 287 277 261 238 220 207 208 212 215 214 212 212 214 212 210 208 208 207 204 200 198 200 202 205 212 218 219 225 236 239 244 253
180 192 163 192 245 210 249 272 257 260 276 281 285 292 293 290 286 285 284 278 255 233 218 215 215 217 219 213 211 215 213 207 209 212 209 203 201 199 201 201 206 214 218 219 225 239 244 245 253
Height
1550 1551 1553 1555 1559 1572 1575 1574 1573 1576 1576 1576 1577 1579 1580 1581 1585 1588 1582 1581 1584 1587 1589 1591 1592 1593 1593 1593 1593 1592 1592 1591 1590 1589 1587 1586 1585 1583 1581 1580 1578 1577 1575 1573 1571 1569 1568 1565 1564
1551 1553 1555 1556 1566 1578 1576 1571 1574 1573 1574 1575 1576 1577 1577 1577 1578 1579 1578 1580 1583 1586 1588 1590 1591 1592 1592 1592 1592 1592 1591 1590 1589 1588 1587 1586 1584 1583 1581 1580 1578 1576 1575 1573 1571 1569 1567 1565 1563
1552 1553 1555 1559 1569 1575 1570 1569 1571 1573 1574 1574 1575 1576 1576 1575 1575 1576 1577 1579 1582 1585 1587 1589 1590 1591 1591 1591 1591 1591 1590 1589 1588 1587 1586 1584 1583 1582 1580 1579 1577 1576 1574 1573 1571 1569 1566 1564 1562
1553 1555 1556 1564 1567 1569 1569 1569 1570 1572 1574 1574 1574 1575 1574 1574 1573 1574 1575 1578 1580 1583 1585 1587 1588 1589 1590 1590 1590 1590 1589 1589 1587 1586 1585 1583 1582 1581 1579 1578 1576 1575 1573 1572 1570 1568 1565 1563 1561
1554 1555 1562 1570 1568 1568 1568 1568 1569 1570 1571 1572 1573 1572 1571 1572 1572 1572 1574 1577 1579 1582 1584 1585 1587 1588 1589 1589 1589 1589 1588 1587 1586 1585 1583 1582 1581 1579 1578 1576 1575 1573 1572 1570 1568 1566 1564 1562 1561
1555 1556 1569 1572 1567 1567 1566 1566 1568 1569 1570 1571 1572 1571 1568 1569 1570 1571 1574 1576 1578 1581 1582 1584 1585 1586 1587 1588 1588 1587 1587 1586 1584 1583 1582 1581 1579 1578 1576 1575 1573 1572 1570 1569 1567 1565 1563 1561 1560
1555 1560 1566 1566 1568 1567 1565 1565 1566 1566 1567 1568 1568 1569 1565 1566 1568 1570 1573 1575 1577 1579 1581 1582 1583 1585 1585 1586 1586 1585 1585 1584 1583 1581 1580 1579 1578 1576 1575 1573 1572 1570 1569 1567 1566 1564 1562 1561 1559
1554 1559 1567 1569 1569 1564 1561 1562 1562 1564 1564 1565 1566 1565 1563 1564 1566 1568 1570 1572 1574 1576 1578 1580 1581 1582 1583 1584 1584 1584 1583 1582 1581 1580 1578 1577 1576 1575 1573 1572 1570 1569 1567 1566 1564 1563 1561 1560 1558
1554 1562 1566 1565 1566 1560 1558 1560 1561 1561 1562 1562 1561 1561 1561 1562 1563 1565 1566 1568 1570 1572 1574 1576 1578 1580 1581 1581 1582 1581 1581 1580 1579 1578 1576 1575 1574 1573 1572 1570 1569 1567 1566 1564 1563 1561 1559 1558 1556
1553 1562 1558 1555 1555 1555 1555 1556 1558 1559 1559 1558 1558 1558 1558 1559 1560 1561 1562 1563 1565 1567 1570 1573 1575 1577 1578 1579 1579 1579 1579 1578 1577 1576 1574 1573 1572 1571 1570 1568 1567 1565 1564 1562 1560 1559 1557 1555 1553
1552 1555 1553 1553 1553 1553 1554 1555 1556 1556 1555 1551 1551 1552 1554 1556 1556 1557 1558 1560 1562 1565 1567 1569 1571 1573 1574 1575 1576 1576 1576 1575 1574 1573 1572 1571 1570 1568 1567 1566 1564 1563 1562 1560 1558 1556 1554 1552 1550
1553 1553 1553 1552 1551 1551 1552 1552 1552 1550 1545 1547 1548 1550 1550 1551 1551 1552 1554 1556 1558 1560 1563 1565 1567 1569 1570 1571 1572 1572 1572 1572 1572 1571 1569 1568 1567 1566 1564 1563 1562 1560 1559 1557 1555 1553 1550 1548 1546
1553 1553 1552 1551 1551 1550 1550 1550 1549 1543 1542 1545 1545 1545 1545 1546 1547 1549 1551 1552 1554 1556 1558 1560 1563 1564 1566 1567 1568 1568 1569 1568 1568 1567 1566 1565 1564 1562 1561 1560 1558 1557 1555 1553 1551 1548 1546 1543 1541
1553 1552 1551 1550 1550 1550 1550 1548 1547 1535 1539 1539 1539 1539 1540 1541 1542 1544 1545 1546 1548 1550 1552 1555 1557 1559 1561 1562 1563 1564 1564 1564 1564 1563 1562 1561 1560 1559 1557 1556 1554 1552 1550 1548 1545 1543 1540 1537 1535
1553 1553 1551 1549 1549 1549 1550 1547 1538 1530 1534 1534 1534 1534 1534 1535 1537 1537 1539 1540 1543 1545 1547 1549 1551 1554 1555 1556 1558 1559 1559 1559 1559 1559 1558 1557 1556 1555 1553 1552 1550 1547 1545 1542 1540 1537 1534 1531 1529
1554 1556 1555 1548 1548 1549 1553 1547 1527 1529 1529 1528 1528 1528 1528 1529 1530 1531 1534 1535 1538 1539 1541 1543 1546 1547 1548 1550 1552 1553 1554 1554 1554 1554 1553 1552 1551 1550 1548 1547 1545 1542 1540 1537 1535 1533 1530 1527 1524
1558 1560 1555 1550 1547 1549 1550 1542 1525 1525 1524 1522 1522 1522 1522 1522 1523 1525 1527 1529 1531 1533 1535 1537 1539 1540 1542 1545 1546 1547 1548 1548 1548 1548 1547 1547 1546 1544 1543 1542 1540 1538 1535 1533 1530 1527 1525 1521 1518
1557 1557 1556 1553 1545 1549 1549 1538 1522 1521 1521 1517 1515 1515 1515 1514 1515 1519 1521 1523 1525 1527 1529 1530 1532 1533 1536 1538 1539 1540 1540 1540 1541 1541 1541 1541 1540 1539 1538 1536 1535 1532 1530 1528 1525 1523 1520 1517 1513
1552 1554 1556 1550 1543 1547 1544 1533 1517 1511 1513 1509 1506 1505 1505 1505 1508 1512 1514 1516 1518 1519 1520 1522 1524 1525 1528 1529 1529 1530 1531 1533 1534 1535 1535 1535 1534 1533 1532 1531 1529 1527 1525 1523 1521 1518 1516 1513 1509
1552 1554 1554 1547 1542 1545 1540 1528 1511 1503 1501 1497 1496 1495 1496 1498 1500 1503 1506 1508 1509 1511 1512 1514 1515 1517 1519 1520 1522 1524 1525 1526 1528 1528 1528 1528 1527 1526 1525 1525 1523 1522 1520 1518 1516 1513 1510 1508 1505
1551 1553 1549 1547 1542 1542 1542 1524 1508 1497 1493 1490 1488 1487 1488 1490 1492 1496 1498 1500 1502 1503 1504 1506 1507 1509 1511 1513 1515 1516 1516 1516 1518 1519 1520 1521 1520 1519 1519 1518 1517 1516 1514 1512 1511 1508 1505 1503 1501
1553 1545 1545 1544 1548 1550 1544 1540 1507 1499 1492 1485 1481 1480 1481 1483 1486 1488 1490 1492 1494 1495 1498 1499 1500 1502 1503 1504 1504 1504 1505 1505 1507 1511 1513 1513 1513 1512 1512 1511 1510 1509 1508 1506 1505 1503 1500 1497 1495
1545 1542 1544 1545 1548 1552 1547 1547 1514 1503 1493 1480 1474 1473 1475 1477 1480 1482 1484 1486 1488 1490 1491 1492 1493 1494 1494 1495 1495 1496 1496 1497 1500 1503 1504 1505 1505 1505 1504 1504 1503 1502 1501 1500 1498 1497 1494 1492 1489
1543 1545 1549 1554 1556 1556 1545 1550 1525 1503 1488 1479 1472 1470 1471 1473 1475 1476 1478 1480 1481 1483 1483 1484 1485 1485 1485 1485 1485 1486 1486 1488 1490 1492 1495 1496 1497 1497 1497 1496 1496 1495 1494 1493 1492 1490 1488 1486 1483
1544 1551 1559 1554 1556 1550 1541 1543 1521 1488 1481 1478 1474 1470 1469 1469 1470 1471 1472 1473 1474 1475 1476 1477 1477 1477 1477 1476 1476 1476 1477 1479 1480 1483 1486 1488 1488 1488 1489 1488 1488 1487 1487 1486 1484 1483 1481 1479 1476
1546 1549 1558 1558 1558 1549 1539 1536 1507 1481 1476 1474 1472 1469 1467 1466 1466 1466 1467 1468 1468 1469 1469 1469 1469 1469 1469 1468 1468 1468 1469 1470 1471 1474 1476 1478 1479 1480 1481 1480 1480 1480 1479 1478 1477 1475 1474 1472 1469
1546 1550 1549 1556 1555 1557 1541 1526 1504 1479 1474 1471 1469 1467 1465 1464 1463 1462 1463 1463 1463 1463 1463 1463 1462 1462 1461 1461 1460 1460 1460 1460 1461 1464 1466 1468 1470 1472 1472 1472 1472 1472 1472 1471 1469 1467 1466 1464 1461
1542 1547 1555 1555 1556 1554 1541 1529 1511 1487 1477 1471 1468 1466 1463 1461 1460 1459 1458 1458 1457 1457 1456 1456 1455 1454 1454 1453 1452 1451 1451 1451 1452 1454 1456 1458 1461 1462 1463 1463 1464 1464 1464 1463 1462 1460 1458 1456 1453
1545 1547 1548 1554 1557 1555 1549 1523 1494 1486 1476 1473 1468 1464 1462 1460 1457 1455 1453 1452 1450 1449 1449 1448 1447 1446 1445 1444 1443 1442 1442 1442 1443 1443 1445 1448 1451 1452 1453 1454 1455 1455 1455 1455 1454 1452 1450 1447 1445
1539 1541 1546 1550 1547 1554 1551 1517 1483 1478 1472 1470 1466 1462 1460 1457 1453 1450 1447 1445 1442 1441 1440 1440 1439 1438 1437 1436 1434 1433 1432 1432 1432 1432 1434 1437 1439 1442 1443 1445 1446 1447 1447 1447 1445 1444 1442 1439 1436